Weather History for Northolt, United Kingdom

Change the Weather History Date:

Monday, August 5, 2013

  Actual Average Record
Temperature  
Mean Temperature 67 °F -  
Max Temperature 74 °F 70 °F 87 °F (2003)
Min Temperature 59 °F 54 °F 51 °F (2000)
Cooling Degree Days 2    
Growing Degree Days 17 (Base 50)    
Moisture  
Dew Point 58 °F    
Average Humidity 78    
Maximum Humidity 95    
Minimum Humidity 41    
Precipitation  
Precipitation 0.51 in - - ()
Sea Level Pressure  
Sea Level Pressure 29.87 in    
Wind  
Wind Speed 7 mph ()    
Max Wind Speed 17 mph    
Max Gust Speed -    
Visibility 6.2 miles    
Events Rain    
Averages and records for this station are not official NWS values.
T = Trace of Precipitation, MM = Missing Value Source: Averaged Metar Reports

Daily Weather History Graph

Daily Weather History Graph

Search for Another Location

Airport:

Trip Planner

Search our weather history database for the weather conditions in past years. The results will help you decide how hot, cold, wet, or windy it might be!

Date:

Astronomy

Aug. 05, 2013 Rise Set
Actual Time 5:31 AM BST 8:42 PM BST
Civil Twilight 4:51 AM BST 9:22 PM BST
Nautical Twilight 3:59 AM BST 10:14 PM BST
Astronomical Twilight 2:49 AM BST 11:22 PM BST
Moon 4:13 AM BST (8/5) 7:30 PM BST (8/5)
Length of Visible Light 16h 30m
Length of Day
15h 11m
Waning Crescent, 2% of the Moon is Illuminated
Aug 5
Waning Crescent
Aug 6
New
Aug 14
First Quarter
Aug 21
Full
Aug 28
Last Quarter

Hourly Weather History & Observations

Time (BST) Temp. Dew Point Humidity Pressure Visibility Wind Dir Wind Speed Gust Speed Precip Events Conditions
12:50 AM 64 °F 55 °F 64% 30.03 in 22 mi South 5.8 mph - -   Mostly Cloudy
12:50 AM 64.4 °F 55.4 °F 73% 30.01 in 6.2 mi South 5.8 mph - N/A   Mostly Cloudy
1:50 AM 62.6 °F 55.4 °F 77% 30.01 in 6.2 mi South 6.9 mph - N/A   Mostly Cloudy
2:50 AM 62.6 °F 57.2 °F 82% 29.98 in 6.2 mi South 5.8 mph - N/A   Overcast
3:50 AM 62 °F 56 °F 73% 29.96 in 22 mi SSE 5.8 mph - -   Mostly Cloudy
3:50 AM 62.6 °F 55.4 °F 77% 29.95 in 6.2 mi SSE 5.8 mph - N/A   Mostly Cloudy
4:50 AM 62.6 °F 55.4 °F 77% 29.92 in 6.2 mi SSE 8.1 mph - N/A   Mostly Cloudy
5:50 AM 62.6 °F 55.4 °F 77% 29.92 in 6.2 mi SSE 5.8 mph - N/A   Mostly Cloudy
6:50 AM 64 °F 56 °F 69% 29.94 in 12 mi South 5.8 mph - -   Mostly Cloudy
6:50 AM 64.4 °F 57.2 °F 77% 29.92 in - South 5.8 mph - N/A   Clear
7:50 AM 64.4 °F 57.2 °F 77% 29.92 in - South 10.4 mph - N/A   Clear
8:50 AM 68.0 °F 57.2 °F 68% 29.92 in 6.2 mi South 10.4 mph - N/A   Mostly Cloudy
9:50 AM 68 °F 55 °F 54% 29.90 in 16 mi South 10.4 mph - - Rain Light Rain
9:50 AM 68.0 °F 55.4 °F 64% 29.89 in 6.2 mi South 10.4 mph - N/A   Mostly Cloudy
10:50 AM 69.8 °F 55.4 °F 60% 29.89 in 6.2 mi South 15.0 mph - N/A   Mostly Cloudy
11:50 AM 73.4 °F 53.6 °F 50% 29.86 in 6.2 mi SSW 17.3 mph - N/A   Mostly Cloudy
12:50 PM 70 °F 52 °F 41% 29.86 in 22 mi South 15.0 mph - - Rain Light Rain
12:50 PM 69.8 °F 51.8 °F 53% 29.86 in 6.2 mi South 15.0 mph - N/A   Mostly Cloudy
1:50 PM 73.4 °F 55.4 °F 53% 29.83 in 6.2 mi South 17.3 mph - N/A   Scattered Clouds
2:50 PM 71.6 °F 57.2 °F 60% 29.80 in 6.2 mi South 12.7 mph - N/A   Mostly Cloudy
3:50 PM 67 °F 60 °F 73% 29.81 in 4 mi South 10.4 mph - - Rain Heavy Rain Showers
3:50 PM 66.2 °F 60.8 °F 83% 29.80 in 3.7 mi South 10.4 mph - N/A Rain Rain Showers
4:01 PM 66.2 °F 62.6 °F 88% 29.80 in 6.2 mi South 5.8 mph - N/A Rain Light Rain Showers
4:50 PM 66.2 °F 60.8 °F 83% 29.77 in 4.3 mi SSW 2.3 mph - N/A Rain Light Rain Showers
4:59 PM 66.2 °F 62.6 °F 88% 29.77 in - WNW 6.9 mph - N/A Rain Rain Showers
5:12 PM 64.4 °F 62.6 °F 94% 29.77 in 2.5 mi WNW 8.1 mph - N/A Rain Rain Showers
5:16 PM 64.4 °F 62.6 °F 94% 29.77 in 1.6 mi WNW 6.9 mph - N/A Rain Heavy Rain Showers
5:37 PM 62.6 °F 60.8 °F 94% 29.77 in 2.5 mi West 10.4 mph - N/A Rain Rain Showers
6:25 PM 62.6 °F 60.8 °F 94% 29.77 in 1.9 mi WNW 2.3 mph - N/A Rain Light Rain
6:50 PM 62 °F 61 °F 95% 29.79 in 5 mi West 4.6 mph - - Rain Light Rain
6:50 PM 62.6 °F 60.8 °F 94% 29.77 in 5.0 mi West 4.6 mph - N/A Rain Light Rain
7:50 PM 62.6 °F 60.8 °F 94% 29.80 in 6.2 mi West 6.9 mph - N/A   Mostly Cloudy
8:50 PM 62.6 °F 60.8 °F 94% 29.83 in 6.2 mi West 8.1 mph - N/A   Mostly Cloudy
9:50 PM 61 °F 59 °F 92% 29.87 in 16 mi WNW 8.1 mph - -   Partly Cloudy
9:50 PM 60.8 °F 59.0 °F 94% 29.86 in 6.2 mi WNW 8.1 mph - N/A   Partly Cloudy
10:50 PM 60.8 °F 59.0 °F 94% 29.89 in 6.2 mi WNW 5.8 mph - N/A Rain Light Rain Showers
11:50 PM 59.0 °F 57.2 °F 94% 29.92 in 6.2 mi WNW 8.1 mph - N/A   Unknown